| time (UTC) | temp F | wind direction | speed knots | gust knots | rain 1hr in | rain 24hr in | rain mn in | humidity % | barometer mb |
| 20260906083934 | 59 | 275 | 8.7 | 20.0 | 0.00 | 0.00 | 0.00 | 84 | 1014.1 |
| 20260906083421 | 59 | 251 | 7.0 | 14.8 | 0.00 | 0.00 | 0.00 | 84 | 1014.2 |
| 20260906082927 | 59 | 252 | 7.8 | 16.5 | 0.00 | 0.00 | 0.00 | 84 | 1014.1 |
| 20260906082434 | 59 | 268 | 9.6 | 16.5 | 0.00 | 0.00 | 0.00 | 84 | 1014.1 |
| 20260906081919 | 59 | 284 | 10.4 | 18.2 | 0.00 | 0.00 | 0.00 | 84 | 1014.2 |
| 20260906081425 | 59 | 211 | 10.4 | 18.2 | 0.00 | 0.00 | 0.00 | 84 | 1014.2 |
| 20260906080926 | 59 | 277 | 10.4 | 16.5 | 0.00 | 0.00 | 0.00 | 84 | 1014.3 |
| 20260906080433 | 59 | 256 | 9.6 | 17.4 | 0.00 | 0.00 | 0.00 | 84 | 1014.3 |
| 20260906075918 | 59 | 258 | 10.4 | 20.0 | 0.00 | 0.00 | 0.00 | 84 | 1014.3 |
| 20260906075448 | 59 | 275 | 9.6 | 20.0 | 0.00 | 0.00 | 0.00 | 84 | 1014.2 |
| 20260906074937 | 59 | 268 | 8.7 | 14.8 | 0.00 | 0.00 | 0.00 | 84 | 1014.3 |
| 20260906074444 | 59 | 222 | 8.7 | 14.8 | 0.00 | 0.00 | 0.00 | 84 | 1014.3 |
| 20260906073924 | 59 | 292 | 7.0 | 14.8 | 0.00 | 0.00 | 0.00 | 84 | 1014.3 |
| 20260906073431 | 59 | 273 | 8.7 | 14.8 | 0.00 | 0.00 | 0.00 | 84 | 1014.3 |
| 20260906072937 | 59 | 249 | 7.8 | 15.6 | 0.00 | 0.00 | 0.00 | 84 | 1014.3 |
| 20260906072440 | 59 | 282 | 10.4 | 15.6 | 0.00 | 0.00 | 0.00 | 84 | 1014.4 |
| 20260906071926 | 59 | 270 | 10.4 | 16.5 | 0.00 | 0.00 | 0.00 | 84 | 1014.4 |
| 20260906071433 | 59 | 244 | 8.7 | 16.5 | 0.00 | 0.00 | 0.00 | 84 | 1014.4 |
| 20260906070919 | 59 | 284 | 8.7 | 14.8 | 0.00 | 0.00 | 0.00 | 84 | 1014.5 |
| 20260906070441 | 59 | 280 | 7.8 | 14.8 | 0.00 | 0.00 | 0.00 | 84 | 1014.5 |
| 20260906065941 | 59 | 299 | 8.7 | 15.6 | 0.00 | 0.00 | 0.00 | 84 | 1014.5 |
| 20260906065455 | 59 | 276 | 10.4 | 15.6 | 0.00 | 0.00 | 0.00 | 84 | 1014.5 |
| 20260906064920 | 59 | 359 | 8.7 | 14.8 | 0.00 | 0.00 | 0.00 | 84 | 1014.5 |
| 20260906064424 | 59 | 271 | 7.8 | 13.9 | 0.00 | 0.00 | 0.00 | 83 | 1014.6 |
| 20260906063933 | 60 | 247 | 7.8 | 14.8 | 0.00 | 0.00 | 0.00 | 83 | 1014.5 |
| 20260906063419 | 60 | 270 | 7.0 | 14.8 | 0.00 | 0.00 | 0.00 | 83 | 1014.6 |
| 20260906062920 | 60 | 249 | 7.8 | 13.0 | 0.00 | 0.00 | 0.00 | 83 | 1014.6 |
| 20260906062426 | 60 | 249 | 7.8 | 13.0 | 0.00 | 0.00 | 0.00 | 83 | 1014.6 |
| 20260906061931 | 60 | 264 | 6.1 | 13.0 | 0.00 | 0.00 | 0.00 | 83 | 1014.7 |
| 20260906061419 | 60 | 275 | 6.1 | 13.0 | 0.00 | 0.00 | 0.00 | 83 | 1014.8 |
| 20260906060945 | 60 | 247 | 7.8 | 13.9 | 0.00 | 0.00 | 0.00 | 83 | 1014.8 |
| 20260906060431 | 60 | 257 | 8.7 | 13.9 | 0.00 | 0.00 | 0.00 | 83 | 1014.8 |
| 20260906055931 | 60 | 263 | 6.1 | 15.6 | 0.00 | 0.00 | 0.00 | 83 | 1014.9 |
| 20260906055419 | 60 | 263 | 7.0 | 11.3 | 0.00 | 0.00 | 0.00 | 82 | 1014.8 |
| 20260906054954 | 60 | 264 | 6.1 | 10.4 | 0.00 | 0.00 | 0.00 | 82 | 1014.9 |
| 20260906054419 | 60 | 227 | 5.2 | 11.3 | 0.00 | 0.00 | 0.00 | 82 | 1014.9 |
| 20260906053927 | 60 | 219 | 6.1 | 11.3 | 0.00 | 0.00 | 0.00 | 82 | 1014.9 |
| 20260906053435 | 60 | 280 | 4.3 | 9.6 | 0.00 | 0.00 | 0.00 | 82 | 1015.0 |
| 20260906052920 | 60 | 268 | 4.3 | 8.7 | 0.00 | 0.00 | 0.00 | 81 | 1015.0 |
| 20260906052447 | 60 | 268 | 1.7 | 7.8 | 0.00 | 0.00 | 0.00 | 81 | 1015.1 |
| 20260906051932 | 60 | 226 | 2.6 | 8.7 | 0.00 | 0.00 | 0.00 | 81 | 1015.0 |
| 20260906051420 | 60 | 257 | 4.3 | 8.7 | 0.00 | 0.00 | 0.00 | 81 | 1015.1 |
| 20260906050929 | 60 | 256 | 3.5 | 11.3 | 0.00 | 0.00 | 0.00 | 81 | 1015.1 |
| 20260906050434 | 61 | 240 | 5.2 | 13.0 | 0.00 | 0.00 | 0.00 | 81 | 1015.0 |
| 20260906045917 | 61 | 296 | 4.3 | 13.0 | 0.00 | 0.00 | 0.00 | 80 | 1015.0 |
| 20260906045424 | 61 | 256 | 7.0 | 12.2 | 0.00 | 0.00 | 0.00 | 80 | 1015.0 |
| 20260906044929 | 61 | 264 | 4.3 | 8.7 | 0.00 | 0.00 | 0.00 | 80 | 1015.0 |
| 20260906044431 | 61 | 298 | 3.5 | 8.7 | 0.00 | 0.00 | 0.00 | 80 | 1015.0 |
| 20260906043919 | 61 | 226 | 4.3 | 7.8 | 0.00 | 0.00 | 0.00 | 79 | 1015.0 |
| 20260906043424 | 61 | 222 | 4.3 | 8.7 | 0.00 | 0.00 | 0.00 | 79 | 1014.9 |
| 20260906042930 | 61 | 253 | 5.2 | 8.7 | 0.00 | 0.00 | 0.00 | 80 | 1014.9 |
| 20260906042417 | 61 | 226 | 4.3 | 9.6 | 0.00 | 0.00 | 0.00 | 80 | 1014.8 |
| 20260906041944 | 61 | 285 | 5.2 | 9.6 | 0.00 | 0.00 | 0.00 | 79 | 1014.7 |
| 20260906041443 | 61 | 270 | 6.1 | 12.2 | 0.00 | 0.00 | 0.00 | 79 | 1014.6 |
| 20260906040928 | 61 | 247 | 4.3 | 13.0 | 0.00 | 0.00 | 0.00 | 79 | 1014.6 |
| 20260906040503 | 61 | 292 | 8.7 | 12.2 | 0.00 | 0.00 | 0.00 | 79 | 1014.6 |
| 20260906035918 | 62 | 263 | 6.1 | 12.2 | 0.00 | 0.00 | 0.00 | 78 | 1014.5 |
| 20260906035443 | 62 | 318 | 7.8 | 12.2 | 0.00 | 0.00 | 0.00 | 78 | 1014.5 |
| 20260906034954 | 62 | 268 | 4.3 | 7.8 | 0.00 | 0.00 | 0.00 | 78 | 1014.4 |
| 20260906034436 | 62 | 284 | 4.3 | 8.7 | 0.00 | 0.00 | 0.00 | 78 | 1014.4 |
| 20260906033944 | 62 | 304 | 3.5 | 6.1 | 0.00 | 0.00 | 0.00 | 79 | 1014.2 |
| 20260906033425 | 62 | 301 | 2.6 | 7.8 | 0.00 | 0.00 | 0.00 | 79 | 1014.1 |
| 20260906032930 | 62 | 284 | 3.5 | 7.8 | 0.00 | 0.00 | 0.00 | 79 | 1014.2 |
| 20260906032434 | 62 | 330 | 2.6 | 7.8 | 0.00 | 0.00 | 0.00 | 79 | 1014.2 |
| 20260906031930 | 62 | 19 | 2.6 | 8.7 | 0.00 | 0.00 | 0.00 | 79 | 1014.2 |
| 20260906031431 | 62 | 283 | 3.5 | 11.3 | 0.00 | 0.00 | 0.00 | 79 | 1014.0 |
| 20260906030919 | 62 | 275 | 5.2 | 15.6 | 0.00 | 0.00 | 0.00 | 79 | 1013.9 |
| 20260906030423 | 62 | 322 | 7.0 | 15.6 | 0.00 | 0.00 | 0.00 | 79 | 1013.9 |
| 20260906025930 | 62 | 278 | 6.1 | 10.4 | 0.00 | 0.00 | 0.00 | 79 | 1013.8 |
| 20260906025417 | 62 | 275 | 7.0 | 13.9 | 0.00 | 0.00 | 0.00 | 79 | 1013.8 |
| 20260906024917 | 62 | 278 | 7.8 | 13.9 | 0.00 | 0.00 | 0.00 | 78 | 1013.8 |
| 20260906024438 | 62 | 298 | 6.1 | 13.0 | 0.00 | 0.00 | 0.00 | 78 | 1013.8 |
| 20260906023946 | 63 | 263 | 7.0 | 13.0 | 0.00 | 0.00 | 0.00 | 78 | 1014.0 |
| 20260906023430 | 63 | 270 | 7.0 | 13.0 | 0.00 | 0.00 | 0.00 | 77 | 1014.1 |
| 20260906022936 | 63 | 292 | 5.2 | 11.3 | 0.00 | 0.00 | 0.00 | 77 | 1014.1 |
| 20260906022443 | 63 | 301 | 6.1 | 13.9 | 0.00 | 0.00 | 0.00 | 76 | 1013.9 |
| 20260906021929 | 63 | 275 | 7.0 | 13.9 | 0.00 | 0.00 | 0.00 | 75 | 1013.9 |
| 20260906021416 | 63 | 265 | 7.0 | 20.0 | 0.00 | 0.00 | 0.00 | 75 | 1013.9 |
| 20260906020920 | 63 | 289 | 9.6 | 20.0 | 0.00 | 0.00 | 0.00 | 74 | 1013.9 |
| 20260906020443 | 64 | 277 | 8.7 | 16.5 | 0.00 | 0.00 | 0.00 | 74 | 1013.8 |
| 20260906015954 | 64 | 305 | 8.7 | 15.6 | 0.00 | 0.00 | 0.00 | 74 | 1013.9 |
| 20260906015420 | 64 | 239 | 8.7 | 18.2 | 0.00 | 0.00 | 0.00 | 73 | 1014.0 |
| 20260906014922 | 64 | 291 | 8.7 | 17.4 | 0.00 | 0.00 | 0.00 | 73 | 1014.1 |
| 20260906014429 | 64 | 302 | 8.7 | 18.2 | 0.00 | 0.00 | 0.00 | 73 | 1014.2 |
| 20260906013926 | 64 | 306 | 8.7 | 18.2 | 0.00 | 0.00 | 0.00 | 73 | 1014.1 |
| 20260906013429 | 64 | 292 | 10.4 | 18.2 | 0.00 | 0.00 | 0.00 | 73 | 1014.1 |
| 20260906012934 | 65 | 284 | 9.6 | 17.4 | 0.00 | 0.00 | 0.00 | 72 | 1014.0 |
| 20260906012441 | 64 | 338 | 10.4 | 20.9 | 0.00 | 0.00 | 0.00 | 73 | 1014.0 |
| 20260906011926 | 64 | 283 | 10.4 | 20.9 | 0.00 | 0.00 | 0.00 | 73 | 1014.0 |
| 20260906011432 | 64 | 277 | 13.0 | 22.6 | 0.00 | 0.00 | 0.00 | 73 | 1014.0 |
| 20260906010919 | 65 | 281 | 14.8 | 22.6 | 0.00 | 0.00 | 0.00 | 72 | 1014.0 |
| 20260906010419 | 65 | 282 | 11.3 | 20.9 | 0.00 | 0.00 | 0.00 | 72 | 1014.0 |
| 20260906005921 | 66 | 261 | 12.2 | 20.9 | 0.00 | 0.00 | 0.00 | 71 | 1014.0 |
| 20260906005427 | 66 | 285 | 9.6 | 20.0 | 0.00 | 0.00 | 0.00 | 71 | 1014.1 |
| 20260906004930 | 66 | 276 | 13.0 | 20.0 | 0.00 | 0.00 | 0.00 | 71 | 1014.1 |
| 20260906004433 | 66 | 304 | 10.4 | 18.2 | 0.00 | 0.00 | 0.00 | 71 | 1014.1 |
| 20260906003919 | 66 | 304 | 9.6 | 19.1 | 0.00 | 0.00 | 0.00 | 71 | 1014.2 |
| 20260906003443 | 65 | 265 | 11.3 | 19.1 | 0.00 | 0.00 | 0.00 | 71 | 1014.2 |
| 20260906002925 | 66 | 259 | 10.4 | 18.2 | 0.00 | 0.00 | 0.00 | 70 | 1014.2 |
| 20260906002434 | 67 | 281 | 8.7 | 18.2 | 0.00 | 0.00 | 0.00 | 69 | 1014.2 |
| 20260906001939 | 67 | 270 | 9.6 | 17.4 | 0.00 | 0.00 | 0.00 | 69 | 1014.3 |
| 20260906001456 | 67 | 301 | 8.7 | 17.4 | 0.00 | 0.00 | 0.00 | 69 | 1014.3 |
| 20260906000922 | 67 | 280 | 8.7 | 17.4 | 0.00 | 0.00 | 0.00 | 68 | 1014.3 |
| 20260906000430 | 67 | 294 | 10.4 | 17.4 | 0.00 | 0.00 | 0.00 | 68 | 1014.2 |
| 20260905235930 | 67 | 287 | 11.3 | 18.2 | 0.00 | 0.00 | 0.00 | 68 | 1014.3 |
| 20260905235420 | 67 | 268 | 7.8 | 18.2 | 0.00 | 0.00 | 0.00 | 69 | 1014.3 |
| 20260905234929 | 67 | 280 | 7.8 | 16.5 | 0.00 | 0.00 | 0.00 | 69 | 1014.5 |
| 20260905234435 | 67 | 277 | 8.7 | 15.6 | 0.00 | 0.00 | 0.00 | 69 | 1014.4 |
| 20260905233923 | 66 | 293 | 9.6 | 14.8 | 0.00 | 0.00 | 0.00 | 69 | 1014.5 |
| 20260905233428 | 66 | 303 | 9.6 | 19.1 | 0.00 | 0.00 | 0.00 | 70 | 1014.6 |
| 20260905232931 | 66 | 282 | 11.3 | 19.1 | 0.00 | 0.00 | 0.00 | 70 | 1014.7 |
| 20260905232418 | 66 | 278 | 9.6 | 15.6 | 0.00 | 0.00 | 0.00 | 71 | 1014.7 |
| 20260905231921 | 66 | 289 | 8.7 | 20.0 | 0.00 | 0.00 | 0.00 | 72 | 1014.8 |
| 20260905231431 | 66 | 272 | 7.8 | 20.0 | 0.00 | 0.00 | 0.00 | 72 | 1014.9 |
| 20260905230918 | 66 | 267 | 7.0 | 16.5 | 0.00 | 0.00 | 0.00 | 73 | 1014.9 |
| 20260905230425 | 66 | 245 | 7.0 | 16.5 | 0.00 | 0.00 | 0.00 | 73 | 1015.0 |
| 20260905225932 | 66 | 275 | 10.4 | 19.1 | 0.00 | 0.00 | 0.00 | 72 | 1014.9 |
| 20260905225419 | 66 | 275 | 7.8 | 20.0 | 0.00 | 0.00 | 0.00 | 72 | 1014.9 |
| 20260905224921 | 67 | 257 | 11.3 | 20.0 | 0.00 | 0.00 | 0.00 | 71 | 1014.8 |
| 20260905224424 | 67 | 286 | 9.6 | 18.2 | 0.00 | 0.00 | 0.00 | 70 | 1014.8 |
| 20260905223930 | 67 | 284 | 6.1 | 18.2 | 0.00 | 0.00 | 0.00 | 70 | 1014.8 |
| 20260905223435 | 68 | 299 | 10.4 | 17.4 | 0.00 | 0.00 | 0.00 | 69 | 1014.7 |
| 20260905222922 | 68 | 268 | 10.4 | 17.4 | 0.00 | 0.00 | 0.00 | 68 | 1014.7 |
| 20260905222427 | 69 | 280 | 7.8 | 13.0 | 0.00 | 0.00 | 0.00 | 68 | 1014.7 |
| 20260905221936 | 69 | 258 | 7.8 | 17.4 | 0.00 | 0.00 | 0.00 | 67 | 1014.7 |
| 20260905221424 | 69 | 240 | 10.4 | 17.4 | 0.00 | 0.00 | 0.00 | 66 | 1014.6 |
| 20260905220933 | 68 | 263 | 8.7 | 16.5 | 0.00 | 0.00 | 0.00 | 69 | 1014.7 |
| 20260905220417 | 67 | 287 | 8.7 | 20.9 | 0.00 | 0.00 | 0.00 | 70 | 1014.6 |
| 20260905215944 | 67 | 275 | 13.0 | 20.9 | 0.00 | 0.00 | 0.00 | 71 | 1014.6 |
| 20260905215431 | 66 | 268 | 14.8 | 22.6 | 0.00 | 0.00 | 0.00 | 71 | 1014.6 |
| 20260905214917 | 66 | 290 | 14.8 | 22.6 | 0.00 | 0.00 | 0.00 | 71 | 1014.8 |
| 20260905214441 | 67 | 275 | 13.9 | 22.6 | 0.00 | 0.00 | 0.00 | 71 | 1014.8 |
| 20260905213926 | 67 | 278 | 16.5 | 22.6 | 0.00 | 0.00 | 0.00 | 70 | 1014.9 |
| 20260905213427 | 68 | 287 | 12.2 | 19.1 | 0.00 | 0.00 | 0.00 | 70 | 1014.7 |
| 20260905212933 | 68 | 261 | 10.4 | 17.4 | 0.00 | 0.00 | 0.00 | 70 | 1014.7 |
| 20260905212441 | 68 | 278 | 9.6 | 19.1 | 0.00 | 0.00 | 0.00 | 70 | 1014.7 |
| 20260905211928 | 68 | 271 | 10.4 | 19.1 | 0.00 | 0.00 | 0.00 | 70 | 1014.8 |
| 20260905211435 | 68 | 261 | 11.3 | 18.2 | 0.00 | 0.00 | 0.00 | 69 | 1014.8 |
| 20260905210924 | 68 | 277 | 12.2 | 17.4 | 0.00 | 0.00 | 0.00 | 68 | 1014.8 |
| 20260905210427 | 68 | 277 | 10.4 | 17.4 | 0.00 | 0.00 | 0.00 | 67 | 1014.9 |
| 20260905205930 | 68 | 237 | 9.6 | 18.2 | 0.00 | 0.00 | 0.00 | 67 | 1015.0 |
| 20260905205418 | 68 | 258 | 11.3 | 19.1 | 0.00 | 0.00 | 0.00 | 66 | 1014.8 |
| 20260905204924 | 68 | 285 | 12.2 | 19.1 | 0.00 | 0.00 | 0.00 | 67 | 1014.9 |
| 20260905204429 | 68 | 284 | 13.0 | 19.1 | 0.00 | 0.00 | 0.00 | 67 | 1014.8 |
| 20260905203936 | 69 | 273 | 8.7 | 18.2 | 0.00 | 0.00 | 0.00 | 66 | 1014.7 |
| 20260905203453 | 69 | 284 | 13.0 | 18.2 | 0.00 | 0.00 | 0.00 | 65 | 1014.8 |
| 20260905202938 | 69 | 271 | 7.8 | 18.2 | 0.00 | 0.00 | 0.00 | 64 | 1014.8 |
| 20260905202420 | 70 | 219 | 8.7 | 18.2 | 0.00 | 0.00 | 0.00 | 63 | 1014.8 |
| 20260905201927 | 70 | 278 | 7.8 | 17.4 | 0.00 | 0.00 | 0.00 | 61 | 1014.7 |
| 20260905201434 | 70 | 230 | 7.8 | 13.9 | 0.00 | 0.00 | 0.00 | 60 | 1014.6 |
| 20260905200919 | 70 | 282 | 4.3 | 13.9 | 0.00 | 0.00 | 0.00 | 64 | 1014.7 |
| 20260905200427 | 69 | 268 | 7.0 | 13.9 | 0.00 | 0.00 | 0.00 | 65 | 1014.9 |
| 20260905195932 | 69 | 304 | 6.1 | 13.9 | 0.00 | 0.00 | 0.00 | 65 | 1014.9 |
| 20260905195419 | 69 | 290 | 4.3 | 10.4 | 0.00 | 0.00 | 0.00 | 65 | 1015.0 |
| 20260905194925 | 69 | 321 | 5.2 | 10.4 | 0.00 | 0.00 | 0.00 | 66 | 1015.0 |
| 20260905194426 | 69 | 299 | 5.2 | 8.7 | 0.00 | 0.00 | 0.00 | 67 | 1015.0 |
| 20260905193932 | 69 | 17 | 3.5 | 10.4 | 0.00 | 0.00 | 0.00 | 68 | 1015.2 |
| 20260905193440 | 68 | 248 | 6.1 | 10.4 | 0.00 | 0.00 | 0.00 | 68 | 1015.2 |
| 20260905192924 | 69 | 277 | 6.1 | 10.4 | 0.00 | 0.00 | 0.00 | 67 | 1015.3 |
| 20260905192429 | 69 | 322 | 6.1 | 10.4 | 0.00 | 0.00 | 0.00 | 67 | 1015.2 |
| 20260905191917 | 68 | 206 | 4.3 | 9.6 | 0.00 | 0.00 | 0.00 | 68 | 1015.3 |
| 20260905191440 | 68 | 264 | 6.1 | 10.4 | 0.00 | 0.00 | 0.00 | 68 | 1015.3 |
| 20260905190927 | 69 | 233 | 7.0 | 12.2 | 0.00 | 0.00 | 0.00 | 69 | 1015.2 |
| 20260905190436 | 68 | 224 | 4.3 | 12.2 | 0.00 | 0.00 | 0.00 | 69 | 1015.4 |
| 20260905185932 | 69 | 304 | 7.0 | 12.2 | 0.00 | 0.00 | 0.00 | 69 | 1015.3 |
| 20260905185418 | 69 | 280 | 7.0 | 12.2 | 0.00 | 0.00 | 0.00 | 68 | 1015.3 |
| 20260905184923 | 69 | 264 | 6.1 | 11.3 | 0.00 | 0.00 | 0.00 | 68 | 1015.2 |
| 20260905184431 | 69 | 247 | 4.3 | 9.6 | 0.00 | 0.00 | 0.00 | 68 | 1015.1 |
| 20260905183935 | 69 | 263 | 6.1 | 8.7 | 0.00 | 0.00 | 0.00 | 67 | 1015.2 |
| 20260905183449 | 70 | 245 | 4.3 | 8.7 | 0.00 | 0.00 | 0.00 | 68 | 1015.2 |
| 20260905182933 | 70 | 240 | 3.5 | 8.7 | 0.00 | 0.00 | 0.00 | 68 | 1015.3 |
| 20260905182418 | 70 | 294 | 3.5 | 7.8 | 0.00 | 0.00 | 0.00 | 68 | 1015.2 |
| 20260905181923 | 69 | 277 | 2.6 | 7.8 | 0.00 | 0.00 | 0.00 | 69 | 1015.3 |
| 20260905181431 | 69 | 14 | 2.6 | 5.2 | 0.00 | 0.00 | 0.00 | 69 | 1015.3 |
| 20260905180937 | 69 | 259 | 2.6 | 7.0 | 0.00 | 0.00 | 0.00 | 69 | 1015.3 |
| 20260905180422 | 69 | 299 | 3.5 | 7.0 | 0.00 | 0.00 | 0.00 | 69 | 1015.3 |
| 20260905175941 | 69 | 1 | 0.9 | 6.1 | 0.00 | 0.00 | 0.00 | 70 | 1015.2 |
| 20260905175426 | 68 | 147 | 2.6 | 6.1 | 0.00 | 0.00 | 0.00 | 70 | 1015.2 |
| 20260905174933 | 68 | 323 | 2.6 | 6.1 | 0.00 | 0.00 | 0.00 | 70 | 1015.1 |
| 20260905174418 | 68 | 259 | 1.7 | 3.5 | 0.00 | 0.00 | 0.00 | 71 | 1015.2 |
| 20260905173921 | 67 | 339 | 1.7 | 4.3 | 0.00 | 0.00 | 0.00 | 72 | 1015.1 |
| 20260905173424 | 66 | 333 | 1.7 | 5.2 | 0.00 | 0.00 | 0.00 | 72 | 1015.1 |
| 20260905172921 | 66 | 308 | 3.5 | 5.2 | 0.00 | 0.00 | 0.00 | 71 | 1015.1 |
| 20260905172426 | 67 | 360 | 1.7 | 5.2 | 0.00 | 0.00 | 0.00 | 72 | 1015.1 |
| 20260905171930 | 66 | 276 | 3.5 | 6.1 | 0.00 | 0.00 | 0.00 | 72 | 1014.9 |
| 20260905171436 | 67 | 329 | 2.6 | 6.1 | 0.00 | 0.00 | 0.00 | 72 | 1015.0 |
| 20260905170942 | 66 | 151 | 2.6 | 6.1 | 0.00 | 0.00 | 0.00 | 72 | 1015.0 |
| 20260905170429 | 67 | 249 | 3.5 | 5.2 | 0.00 | 0.00 | 0.00 | 72 | 1014.9 |
| 20260905165934 | 67 | 257 | 2.6 | 4.3 | 0.00 | 0.00 | 0.00 | 72 | 1014.9 |
| 20260905165434 | 67 | 151 | 1.7 | 3.5 | 0.00 | 0.00 | 0.00 | 72 | 1014.8 |
| 20260905164919 | 66 | 95 | 2.6 | 3.5 | 0.00 | 0.00 | 0.00 | 73 | 1014.8 |
| 20260905164424 | 66 | 88 | 1.7 | 3.5 | 0.00 | 0.00 | 0.00 | 73 | 1014.8 |
| 20260905163930 | 65 | 352 | 1.7 | 3.5 | 0.00 | 0.00 | 0.00 | 74 | 1014.8 |
| 20260905163435 | 65 | 151 | 1.7 | 4.3 | 0.00 | 0.00 | 0.00 | 75 | 1014.7 |
| 20260905162920 | 64 | 151 | 1.7 | 4.3 | 0.00 | 0.00 | 0.00 | 75 | 1014.7 |
| 20260905162428 | 64 | 207 | 0.9 | 3.5 | 0.00 | 0.00 | 0.00 | 76 | 1014.7 |
| 20260905161932 | 64 | 202 | 1.7 | 3.5 | 0.00 | 0.00 | 0.00 | 76 | 1014.6 |
| 20260905161449 | 64 | 222 | 1.7 | 3.5 | 0.00 | 0.00 | 0.00 | 78 | 1014.7 |
| 20260905160933 | 64 | 78 | 1.7 | 2.6 | 0.00 | 0.00 | 0.00 | 80 | 1014.6 |
| 20260905160420 | 63 | 55 | 1.7 | 3.5 | 0.00 | 0.00 | 0.00 | 81 | 1014.6 |
| 20260905155925 | 63 | 156 | 1.7 | 3.5 | 0.00 | 0.00 | 0.00 | 82 | 1014.6 |
| 20260905155430 | 62 | 212 | 1.7 | 4.3 | 0.00 | 0.00 | 0.00 | 83 | 1014.6 |
| 20260905154936 | 62 | 151 | 2.6 | 4.3 | 0.00 | 0.00 | 0.00 | 84 | 1014.6 |
| 20260905154421 | 61 | 177 | 1.7 | 3.5 | 0.00 | 0.00 | 0.00 | 84 | 1014.8 |
| 20260905153921 | 61 | 212 | 1.7 | 3.5 | 0.00 | 0.00 | 0.00 | 85 | 1014.8 |
| 20260905153427 | 61 | 177 | 1.7 | 4.3 | 0.00 | 0.00 | 0.00 | 85 | 1014.9 |
| 20260905152931 | 61 | 194 | 2.6 | 4.3 | 0.00 | 0.00 | 0.00 | 85 | 1014.8 |
| 20260905152433 | 61 | 228 | 1.7 | 4.3 | 0.00 | 0.00 | 0.00 | 85 | 1014.9 |
| 20260905151938 | 61 | 222 | 1.7 | 3.5 | 0.00 | 0.00 | 0.00 | 86 | 1014.8 |
| 20260905151452 | 60 | 107 | 0.9 | 3.5 | 0.00 | 0.00 | 0.00 | 86 | 1014.8 |
| 20260905150932 | 61 | 214 | 0.9 | 2.6 | 0.00 | 0.00 | 0.00 | 86 | 1014.8 |
| 20260905150434 | 60 | 158 | 0.9 | 2.6 | 0.00 | 0.00 | 0.00 | 87 | 1014.7 |
| 20260905145936 | 60 | 200 | 0.9 | 1.7 | 0.00 | 0.00 | 0.00 | 87 | 1014.7 |
| 20260905145419 | 59 | 123 | 0.9 | 0.9 | 0.00 | 0.00 | 0.00 | 87 | 1014.7 |
| 20260905144943 | 59 | 134 | 0.0 | 1.7 | 0.00 | 0.00 | 0.00 | 87 | 1014.6 |
| 20260905144427 | 59 | 62 | 0.9 | 1.7 | 0.00 | 0.00 | 0.00 | 87 | 1014.6 |
| 20260905143930 | 59 | 88 | 1.7 | 1.7 | 0.00 | 0.00 | 0.00 | 87 | 1014.7 |
| 20260905143430 | 58 | 97 | 0.9 | 1.7 | 0.00 | 0.00 | 0.00 | 87 | 1014.6 |
| 20260905142933 | 58 | 151 | 0.9 | 2.6 | 0.00 | 0.00 | 0.00 | 87 | 1014.6 |
| 20260905142449 | 58 | 208 | 1.7 | 2.6 | 0.00 | 0.00 | 0.00 | 87 | 1014.6 |
| 20260905141933 | 57 | 194 | 1.7 | 3.5 | 0.00 | 0.00 | 0.00 | 87 | 1014.6 |
| 20260905141439 | 57 | 177 | 1.7 | 4.3 | 0.00 | 0.00 | 0.00 | 87 | 1014.5 |
| 20260905140953 | 57 | 201 | 2.6 | 4.3 | 0.00 | 0.00 | 0.00 | 87 | 1014.5 |
| 20260905140418 | 57 | 208 | 2.6 | 4.3 | 0.00 | 0.00 | 0.00 | 87 | 1014.4 |
| 20260905135936 | 57 | 192 | 1.7 | 3.5 | 0.00 | 0.00 | 0.00 | 87 | 1014.4 |
| 20260905135422 | 57 | 205 | 1.7 | 3.5 | 0.00 | 0.00 | 0.00 | 87 | 1014.3 |
| 20260905134926 | 57 | 196 | 1.7 | 3.5 | 0.00 | 0.00 | 0.00 | 87 | 1014.2 |
| 20260905134433 | 57 | 192 | 1.7 | 3.5 | 0.00 | 0.00 | 0.00 | 87 | 1014.2 |
| 20260905133940 | 57 | 192 | 1.7 | 2.6 | 0.00 | 0.00 | 0.00 | 87 | 1014.2 |
| 20260905133424 | 57 | 205 | 0.9 | 1.7 | 0.00 | 0.00 | 0.00 | 87 | 1014.1 |
| 20260905132928 | 57 | 45 | 0.0 | 1.7 | 0.00 | 0.00 | 0.00 | 87 | 1014.1 |
| 20260905132436 | 57 | 196 | 0.9 | 3.5 | 0.00 | 0.00 | 0.00 | 87 | 1014.1 |
| 20260905131951 | 57 | 185 | 1.7 | 3.5 | 0.00 | 0.00 | 0.00 | 86 | 1014.1 |
| 20260905131434 | 57 | 177 | 0.9 | 3.5 | 0.00 | 0.00 | 0.00 | 86 | 1014.1 |
| 20260905130931 | 57 | 208 | 1.7 | 3.5 | 0.00 | 0.00 | 0.00 | 86 | 1014.1 |
| 20260905130418 | 57 | 193 | 1.7 | 3.5 | 0.00 | 0.00 | 0.00 | 86 | 1014.2 |
| 20260905125921 | 57 | 200 | 1.7 | 3.5 | 0.00 | 0.00 | 0.00 | 86 | 1014.2 |
| 20260905125424 | 57 | 222 | 0.0 | 1.7 | 0.00 | 0.00 | 0.00 | 86 | 1014.2 |
| 20260905124928 | 57 | 88 | 0.9 | 1.7 | 0.00 | 0.00 | 0.00 | 86 | 1014.3 |
| 20260905124434 | 57 | 222 | 0.9 | 1.7 | 0.00 | 0.00 | 0.00 | 86 | 1014.3 |
| 20260905123921 | 57 | 88 | 0.9 | 1.7 | 0.00 | 0.00 | 0.00 | 86 | 1014.3 |
| 20260905123446 | 57 | 116 | 0.9 | 2.6 | 0.00 | 0.00 | 0.00 | 86 | 1014.2 |
| 20260905122931 | 58 | 192 | 0.9 | 2.6 | 0.00 | 0.00 | 0.00 | 86 | 1014.2 |
| 20260905122436 | 58 | 201 | 1.7 | 2.6 | 0.00 | 0.00 | 0.00 | 86 | 1014.2 |
| 20260905121938 | 57 | 232 | 1.7 | 2.6 | 0.00 | 0.00 | 0.00 | 86 | 1014.2 |
| 20260905121453 | 58 | 210 | 1.7 | 2.6 | 0.00 | 0.00 | 0.00 | 86 | 1014.3 |
| 20260905120935 | 58 | 187 | 1.7 | 2.6 | 0.00 | 0.00 | 0.00 | 85 | 1014.3 |
| 20260905120420 | 58 | 218 | 1.7 | 1.7 | 0.00 | 0.00 | 0.00 | 85 | 1014.2 |
| 20260905115955 | 58 | 222 | 0.9 | 2.6 | 0.00 | 0.00 | 0.00 | 86 | 1014.3 |
| 20260905115440 | 58 | 120 | 1.7 | 2.6 | 0.00 | 0.00 | 0.00 | 86 | 1014.2 |
| 20260905114954 | 58 | 144 | 1.7 | 2.6 | 0.00 | 0.00 | 0.00 | 86 | 1014.3 |
| 20260905114446 | 58 | 125 | 1.7 | 2.6 | 0.00 | 0.00 | 0.00 | 85 | 1014.3 |
| 20260905113931 | 58 | 147 | 1.7 | 2.6 | 0.00 | 0.00 | 0.00 | 85 | 1014.3 |
| 20260905113419 | 58 | 134 | 2.6 | 3.5 | 0.00 | 0.00 | 0.00 | 85 | 1014.3 |
| 20260905112924 | 58 | 141 | 1.7 | 3.5 | 0.00 | 0.00 | 0.00 | 85 | 1014.3 |
| 20260905112431 | 58 | 155 | 1.7 | 2.6 | 0.00 | 0.00 | 0.00 | 85 | 1014.3 |
| 20260905111917 | 59 | 130 | 1.7 | 2.6 | 0.00 | 0.00 | 0.00 | 85 | 1014.4 |
| 20260905111425 | 59 | 45 | 0.9 | 2.6 | 0.00 | 0.00 | 0.00 | 85 | 1014.4 |
| 20260905110947 | 59 | 88 | 0.9 | 4.3 | 0.00 | 0.00 | 0.00 | 85 | 1014.4 |
| 20260905110434 | 59 | 218 | 0.9 | 4.3 | 0.00 | 0.00 | 0.00 | 85 | 1014.3 |
| 20260905105917 | 59 | 228 | 1.7 | 6.1 | 0.00 | 0.00 | 0.00 | 85 | 1014.3 |
| 20260905105423 | 59 | 247 | 3.5 | 6.1 | 0.00 | 0.00 | 0.00 | 85 | 1014.4 |
| 20260905104929 | 59 | 254 | 2.6 | 6.1 | 0.00 | 0.00 | 0.00 | 85 | 1014.3 |
| 20260905104418 | 59 | 258 | 1.7 | 2.6 | 0.00 | 0.00 | 0.00 | 85 | 1014.3 |
| 20260905103924 | 59 | 151 | 0.9 | 3.5 | 0.00 | 0.00 | 0.00 | 85 | 1014.3 |
| 20260905103428 | 59 | 116 | 2.6 | 3.5 | 0.00 | 0.00 | 0.00 | 85 | 1014.3 |
| 20260905102934 | 59 | 151 | 0.9 | 3.5 | 0.00 | 0.00 | 0.00 | 84 | 1014.3 |
| 20260905102419 | 59 | 339 | 1.7 | 3.5 | 0.00 | 0.00 | 0.00 | 84 | 1014.3 |
| 20260905101927 | 59 | 45 | 0.9 | 4.3 | 0.00 | 0.00 | 0.00 | 85 | 1014.4 |
| 20260905101432 | 59 | 285 | 1.7 | 7.0 | 0.00 | 0.00 | 0.00 | 85 | 1014.4 |
| 20260905100941 | 59 | 282 | 2.6 | 7.0 | 0.00 | 0.00 | 0.00 | 85 | 1014.4 |
| 20260905100458 | 60 | 214 | 1.7 | 7.8 | 0.00 | 0.00 | 0.00 | 84 | 1014.3 |
| 20260905095926 | 60 | 257 | 3.5 | 8.7 | 0.00 | 0.00 | 0.00 | 84 | 1014.3 |
| 20260905095431 | 60 | 273 | 4.3 | 8.7 | 0.00 | 0.00 | 0.00 | 84 | 1014.3 |
| 20260905094921 | 60 | 251 | 4.3 | 7.8 | 0.00 | 0.00 | 0.00 | 84 | 1014.3 |
| 20260905094427 | 60 | 282 | 4.3 | 7.8 | 0.00 | 0.00 | 0.00 | 84 | 1014.3 |
| 20260905093935 | 60 | 268 | 4.3 | 10.4 | 0.00 | 0.00 | 0.00 | 84 | 1014.2 |
| 20260905093421 | 60 | 258 | 5.2 | 10.4 | 0.00 | 0.00 | 0.00 | 84 | 1014.2 |
| 20260905092927 | 60 | 301 | 4.3 | 8.7 | 0.00 | 0.00 | 0.00 | 84 | 1014.3 |
| 20260905092435 | 60 | 261 | 3.5 | 7.8 | 0.00 | 0.00 | 0.00 | 84 | 1014.3 |
| 20260905091937 | 60 | 237 | 3.5 | 8.7 | 0.00 | 0.00 | 0.00 | 84 | 1014.4 |
| 20260905091424 | 60 | 232 | 5.2 | 10.4 | 0.00 | 0.00 | 0.00 | 85 | 1014.4 |
| 20260905090931 | 60 | 273 | 5.2 | 12.2 | 0.00 | 0.00 | 0.00 | 85 | 1014.4 |
| 20260905090418 | 60 | 256 | 7.0 | 12.2 | 0.00 | 0.00 | 0.00 | 85 | 1014.5 |
| 20260905085922 | 60 | 292 | 7.0 | 12.2 | 0.00 | 0.00 | 0.00 | 86 | 1014.4 |
| 20260905085431 | 60 | 271 | 7.0 | 12.2 | 0.00 | 0.00 | 0.00 | 86 | 1014.5 |
| 20260905084939 | 60 | 217 | 7.0 | 12.2 | 0.00 | 0.00 | 0.00 | 86 | 1014.5 |
| 20260905084450 | 60 | 282 | 7.0 | 13.0 | 0.00 | 0.00 | 0.00 | 86 | 1014.5 |